Weather History for Melbourne, FL

Change the Weather History Date:

Thursday, January 17, 2013

  Actual Average Record
Temperature  
Mean Temperature 69 °F 60 °F  
Max Temperature 84 °F 71 °F 84 °F (1943)
Min Temperature 54 °F 49 °F 31 °F (1959)
Degree Days  
Heating Degree Days 0 6  
Month to date heating degree days 1 102  
Since 1 July heating degree days 149 281  
Cooling Degree Days 4 1  
Month to date cooling degree days 73 20  
Year to date cooling degree days 73 20  
Growing Degree Days 18 (Base 50)    
Moisture  
Dew Point 60 °F    
Average Humidity 72    
Maximum Humidity 93    
Minimum Humidity 51    
Precipitation  
Precipitation 0.00 in 0.07 in 0.66 in (2008)
Month to date precipitation 1.36 1.20  
Year to date precipitation 1.36 1.20  
Sea Level Pressure  
Sea Level Pressure 30.03 in    
Wind  
Wind Speed 13 mph (WSW)    
Max Wind Speed 29 mph    
Max Gust Speed 35 mph    
Visibility 10 miles    
Events      
T = Trace of Precipitation, MM = Missing Value Source: NWS Daily Summary

Daily Weather History Graph

Daily Weather History Graph

Search for Another Location

Airport:

Trip Planner

Search our weather history database for the weather conditions in past years. The results will help you decide how hot, cold, wet, or windy it might be!

Date:

Astronomy

Jan. 17, 2013 Rise Set
Actual Time 7:15 AM EST 5:50 PM EST
Civil Twilight 6:49 AM EST 6:15 PM EST
Nautical Twilight 6:21 AM EST 6:44 PM EST
Astronomical Twilight 5:52 AM EST 7:12 PM EST
Moon 10:58 AM EST (1/17) No Moon Set
Length of Visible Light 11h 26m
Length of Day
10h 35m
Waxing Crescent, 37% of the Moon is Illuminated
Jan 17
Waxing Crescent
Jan 18
First Quarter
Jan 26
Full
Feb 3
Last Quarter
Feb 10
New

Hourly Weather History & Observations

Time (EST) Temp. Heat Index Dew Point Humidity Pressure Visibility Wind Dir Wind Speed Gust Speed Precip Events Conditions
12:53 AM 71.1 °F - 66.9 °F 87% 30.04 in 10.0 mi South 9.2 mph - N/A   Mostly Cloudy
1:53 AM 70.0 °F - 66.9 °F 90% 30.04 in 10.0 mi South 8.1 mph - N/A   Partly Cloudy
2:53 AM 69.1 °F - 66.9 °F 93% 30.04 in 10.0 mi SSW 9.2 mph - N/A   Overcast
3:53 AM 68.0 °F - 66.0 °F 93% 30.03 in 10.0 mi SW 5.8 mph - N/A   Mostly Cloudy
4:53 AM 68.0 °F - 64.0 °F 87% 30.03 in 10.0 mi SW 5.8 mph - N/A   Mostly Cloudy
5:53 AM 66.0 °F - 63.0 °F 90% 30.03 in 10.0 mi West 3.5 mph - N/A   Partly Cloudy
7:53 AM 64.9 °F - 63.0 °F 93% 30.06 in 8.0 mi Calm Calm - N/A   Scattered Clouds
8:53 AM 69.1 °F - 66.0 °F 90% 30.06 in 10.0 mi South 5.8 mph - N/A   Partly Cloudy
8:59 AM 69.8 °F - 66.2 °F 88% 30.07 in 10.0 mi SSW 6.9 mph - N/A   Mostly Cloudy
9:53 AM 73.0 °F - 68.0 °F 84% 30.07 in 10.0 mi SSW 6.9 mph - N/A   Mostly Cloudy
10:45 AM 78.8 °F - 68.0 °F 69% 30.05 in 10.0 mi SSW 12.7 mph - N/A   Mostly Cloudy
10:53 AM 78.1 °F - 66.9 °F 68% 30.04 in 10.0 mi SSW 16.1 mph 20.7 mph N/A   Mostly Cloudy
11:53 AM 80.1 °F 82.1 °F 66.0 °F 62% 30.01 in 10.0 mi SSW 12.7 mph 23.0 mph N/A   Mostly Cloudy
12:53 PM 81.0 °F 82.5 °F 64.0 °F 56% 29.98 in 10.0 mi SSW 16.1 mph - N/A   Mostly Cloudy
1:53 PM 82.9 °F 84.0 °F 63.0 °F 51% 29.94 in 10.0 mi SW 16.1 mph 24.2 mph N/A   Partly Cloudy
2:53 PM 81.0 °F 81.7 °F 61.0 °F 50% 29.92 in 10.0 mi WSW 13.8 mph - N/A   Mostly Cloudy
3:08 PM 77.0 °F - 64.4 °F 65% 29.93 in 9.0 mi West 24.2 mph 31.1 mph N/A   Overcast
3:53 PM 73.9 °F - 63.0 °F 68% 29.96 in 10.0 mi West 20.7 mph 28.8 mph N/A   Overcast
4:12 PM 71.6 °F - 62.6 °F 73% 29.97 in 10.0 mi West 23.0 mph 33.4 mph N/A   Mostly Cloudy
4:53 PM 64.9 °F - 57.9 °F 78% 30.00 in 10.0 mi West 23.0 mph 34.5 mph N/A   Overcast
5:00 PM 64.4 °F - 57.2 °F 77% 30.01 in 10.0 mi WNW 20.7 mph 29.9 mph N/A   Overcast
5:25 PM 62.6 °F - 55.4 °F 77% 30.02 in 10.0 mi West 23.0 mph 32.2 mph N/A   Mostly Cloudy
5:53 PM 62.1 °F - 54.0 °F 75% 30.03 in 10.0 mi West 23.0 mph 32.2 mph N/A   Mostly Cloudy
6:53 PM 60.1 °F - 52.0 °F 75% 30.05 in 10.0 mi West 17.3 mph 27.6 mph N/A   Clear
7:53 PM 60.1 °F - 51.1 °F 72% 30.06 in 10.0 mi West 16.1 mph - N/A   Scattered Clouds
8:53 PM 57.9 °F - 48.9 °F 72% 30.07 in 10.0 mi West 16.1 mph - N/A   Clear
9:53 PM 57.0 °F - 48.0 °F 72% 30.08 in 10.0 mi West 17.3 mph - N/A   Mostly Cloudy
10:53 PM 55.0 °F - 46.9 °F 74% 30.09 in 10.0 mi West 18.4 mph - N/A   Clear
11:53 PM 54.0 °F - 46.0 °F 75% 30.09 in 10.0 mi West 13.8 mph - N/A   Clear